Dewpoint
20 21 26 28 25 43 45 44 44 48 51 52 51 49 52 51 53 55 57 56 53 52 54 55 54 58 61 62 62 63 64 64 68 68 68 65 65 67 68 68 67 69 66 62
15 19 26 26 37 37 41 43 44 48 51 54 53 54 54 54 54 56 58 56 55 53 56 56 56 60 61 63 63 65 64 67 66 67 66 66 65 66 67 67 65 70 63 64
13 16 23 21 22 41 42 41 42 40 50 55 51 51 53 52 51 53 56 55 55 55 55 56 58 58 61 63 65 64 65 66 66 66 68 68 67 66 68 69 68 68 68 70
13 17 17 15 13 32 26 38 40 35 45 43 50 43 50 51 49 50 55 51 52 56 57 59 58 59 60 63 66 66 67 66 67 67 66 65 62 63 66 67 67 68 68 67
13 13 13 10 12 14 16 18 30 30 30 27 44 42 46 50 47 49 53 56 52 56 57 58 57 59 63 63 67 67 69 68 66 67 69 66 63 65 65 67 67 68 69 68
10 9 10 10 9 11 12 12 19 31 30 24 29 38 46 46 48 52 54 55 55 56 56 58 59 61 64 67 67 64 65 68 68 67 68 68 65 64 65 67 67 68 68 69
14 11 9 12 8 6 9 6 9 16 20 31 38 38 42 48 50 54 49 52 54 56 57 59 58 58 66 66 66 63 66 67 68 69 67 67 68 67 65 66 68 68 67 68
14 15 9 11 9 6 5 4 5 13 30 32 37 41 44 45 52 51 48 48 56 59 60 61 58 61 65 66 64 62 66 68 68 69 68 67 66 68 66 67 66 67 67 68
13 14 17 9 12 10 10 6 5 5 37 30 35 38 38 49 51 52 49 55 54 57 59 61 59 61 64 65 65 66 64 69 68 69 69 69 67 67 67 66 69 65 68 68
18 15 13 12 13 11 10 12 7 8 18 29 37 37 36 41 48 52 48 50 54 57 57 58 59 60 63 64 65 66 60 62 68 69 69 70 69 69 68 70 68 68 68 69
19 17 15 22 12 9 9 11 18 21 20 25 33 35 43 43 49 49 48 51 51 53 53 56 57 60 61 61 65 65 66 65 69 69 69 69 70 70 69 68 69 69 69 67
17 13 15 21 24 15 12 12 17 22 20 24 30 34 45 43 45 46 45 48 50 52 53 55 56 60 62 61 67 67 68 68 69 69 69 68 68 69 69 68 69 68 69 68
19 14 13 17 22 24 15 13 17 21 20 20 25 34 43 43 46 48 51 51 52 53 54 58 63 64 65 66 66 67 68 67 67 69 69 68 68 68 68 68 68 68 69 68
23 19 20 17 24 30 27 31 33 33 24 27 35 37 42 46 47 49 51 52 53 55 59 62 63 63 64 66 67 67 68 67 68 69 69 68 69 68 68 68 67 67 68 70
24 22 24 22 32 33 28 26 27 31 33 28 34 38 41 42 48 48 51 52 54 57 60 60 62 63 63 64 66 68 68 68 68 68 68 67 65 67 68 68 68 68 69 69
25 23 26 23 25 29 28 31 31 34 33 34 33 32 43 45 45 48 49 53 53 58 59 60 63 62 63 66 67 67 68 67 68 67 67 67 66 67 68 67 66 65 68 68
33 29 29 25 26 25 30 33 34 34 37 38 34 37 43 45 45 48 50 52 53 56 59 60 62 63 65 65 67 67 68 68 68 68 67 68 68 67 67 67 66 65 64 68
31 36 37 32 32 28 28 36 36 34 34 34 36 39 40 43 47 50 52 52 54 57 60 60 60 61 63 64 64 65 67 67 66 66 67 68 66 66 67 66 65 65 65 67
32 33 33 31 32 32 30 34 34 37 35 36 40 42 42 42 44 48 50 52 55 59 60 61 62 62 64 64 64 63 62 62 63 64 65 66 66 64 64 63 63 62 64 68
30 31 31 33 30 29 32 36 40 39 34 37 38 41 44 43 41 44 50 52 58 60 61 61 62 62 61 62 64 63 61 59 61 63 64 66 66 65 63 64 63 65 67 69
30 32 29 28 29 31 35 38 40 31 32 40 41 43 43 43 46 49 56 58 60 60 61 62 61 61 62 61 61 61 61 61 63 65 66 65 65 65 66 65 65 66 67 67
30 32 33 30 26 26 37 37 31 37 42 40 43 52 53 53 55 59 61 62 62 61 62 63 63 63 64 64 63 63 63 65 66 67 66 66 67 66 66 66 66 66 66 65
40 44 43 44 40 45 47 38 44 41 41 41 47 55 54 55 60 61 60 61 61 60 62 62 62 62 63 61 63 64 65 66 66 64 63 64 64 64 65 64 64 64 64 63
47 47 47 44 44 46 49 49 47 44 43 42 55 55 55 56 60 61 60 60 61 60 61 62 61 60 60 60 63 64 64 65 63 62 62 62 63 62 63 63 63 62 62 61
47 45 44 44 48 46 49 48 49 50 48 43 47 55 55 56 58 59 58 56 55 55 56 57 57 59 60 60 61 63 62 64 63 62 62 60 60 57 55 53 53 56 53 54
47 46 41 38 47 47 47 49 49 50 51 53 42 55 55 56 56 57 56 55 56 56 57 56 56 59 59 61 61 60 63 62 62 62 63 62 61 58 56 56 55 51 50 51
Wind_Speed
15 13 17 25 19 14 14 6 6 7 9 4 10 10 12 13 9 9 14 13 12 19 17 19 21 23 24 21 20 23 19 20 16 16 15 13 14 8 19 19 17 22 23 22
17 20 25 25 13 12 16 14 18 7 5 8 17 8 16 13 18 20 18 15 10 15 16 17 19 22 24 25 22 22 24 19 18 14 12 6 7 2 18 18 18 25 25 20
19 20 25 23 14 16 14 18 15 9 14 14 12 7 24 13 8 12 13 18 11 14 22 19 18 18 23 26 25 24 26 21 17 17 12 5 3 4 12 15 16 16 23 25
17 27 21 18 17 13 12 20 13 18 21 16 19 9 17 24 14 10 13 15 18 16 20 21 20 15 22 25 22 24 25 24 17 16 16 11 12 9 13 19 16 17 17 13
16 19 16 15 11 10 14 13 9 8 12 5 14 5 5 9 12 18 16 20 21 17 26 26 26 21 6 8 13 16 19 21 18 17 13 17 14 14 12 17 20 16 15 14
16 20 11 19 16 13 10 17 15 11 17 17 12 16 7 14 17 15 17 18 15 21 24 22 22 17 18 20 13 8 12 19 20 20 19 15 18 16 9 11 18 18 17 16
21 21 20 8 12 13 12 13 14 16 12 2 11 3 4 22 14 21 22 23 18 11 20 20 24 20 24 32 28 23 19 21 22 21 22 18 16 15 11 7 15 18 18 16
17 18 24 15 17 12 15 19 15 11 3 0 8 3 12 21 25 24 19 20 16 13 23 31 25 22 25 35 30 25 21 24 24 22 22 21 20 13 14 10 9 12 17 13
9 21 30 18 12 16 18 20 23 14 3 2 5 6 3 22 24 22 23 18 20 19 20 33 30 29 28 31 28 22 22 19 23 25 22 21 22 19 15 14 10 13 10 7
16 14 9 18 16 15 13 12 11 11 10 6 5 2 7 5 25 25 25 28 24 25 28 29 23 29 31 30 27 27 33 35 26 26 24 21 22 19 19 12 16 12 8 8
23 10 19 7 9 13 14 17 12 6 8 3 6 6 8 23 21 30 31 22 21 14 8 8 15 18 22 25 30 34 29 32 30 27 25 24 21 19 18 19 14 14 13 14
14 4 11 18 13 20 16 15 15 13 11 7 6 5 18 25 34 26 20 21 19 18 12 6 7 11 14 25 23 31 32 29 27 25 26 24 22 21 20 20 18 16 15 17
10 9 15 14 6 10 11 17 12 13 9 11 2 4 19 16 14 22 27 22 20 17 12 9 12 14 12 12 5 18 25 28 26 26 24 24 22 21 21 20 19 20 15 19
1 6 8 15 7 5 6 8 13 9 13 3 8 10 11 23 25 23 21 19 16 15 14 13 11 9 9 8 6 6 4 18 23 26 24 23 20 22 20 19 18 19 18 17
7 8 12 14 5 5 6 15 21 15 24 13 16 21 21 20 27 25 25 21 19 17 15 14 10 7 7 11 10 7 8 4 18 19 18 14 11 12 15 15 18 19 20 21
4 12 13 18 14 12 11 4 11 17 19 22 19 14 24 22 23 24 23 23 20 17 17 14 13 7 4 7 12 9 2 2 5 6 13 15 20 12 10 7 11 10 16 22
10 7 8 18 15 12 4 18 18 14 13 6 17 10 22 21 25 28 26 23 21 20 18 17 13 9 6 4 9 13 10 5 3 4 11 14 16 10 8 8 15 18 22 22
13 12 4 5 11 21 7 16 18 14 16 19 30 16 29 26 24 25 25 24 22 22 22 19 16 12 8 7 8 9 11 11 9 12 12 10 13 11 13 6 14 20 30 25
15 10 6 8 12 8 4 7 5 9 9 21 26 22 25 23 19 22 25 22 22 25 22 20 18 19 14 10 9 10 11 10 10 11 11 10 12 14 16 8 9 25 36 17
18 17 13 9 5 8 6 12 20 13 10 18 22 23 24 25 21 19 25 24 24 24 25 22 19 17 17 10 8 8 8 9 9 9 8 6 8 10 12 15 12 18 20 8
17 13 22 22 16 14 3 18 12 15 11 4 16 16 23 12 12 16 27 25 26 25 24 21 18 16 15 14 11 7 4 2 3 5 5 4 6 6 5 10 14 13 7 13
19 13 18 18 22 20 13 13 12 10 10 13 17 16 25 24 24 29 26 25 25 24 21 19 16 13 9 6 4 3 3 7 9 12 14 10 9 9 8 5 8 5 11 12
1 4 6 7 3 20 21 15 6 25 20 15 22 10 25 24 25 25 25 23 24 20 18 15 14 12 9 9 9 9 8 10 14 13 9 8 9 8 7 9 9 9 9 7
4 8 4 13 5 28 26 24 20 2 13 6 30 27 26 24 24 23 21 20 19 19 17 15 18 16 13 10 11 10 9 10 11 10 9 6 8 10 10 11 8 9 8 7
1 0 2 7 11 18 3 24 27 27 18 6 1 30 28 27 23 25 23 22 19 18 18 17 17 16 16 12 9 8 8 9 9 9 9 9 9 11 12 12 9 9 8 4
8 7 7 9 7 8 21 24 29 23 19 24 20 26 26 29 26 25 24 22 21 21 19 18 15 18 14 12 10 7 8 9 6 5 6 9 9 9 9 10 11 14 9 9
Wind_Direction
246 237 250 256 259 138 173 165 157 288 227 192 212 198 206 215 216 234 246 233 199 160 163 157 148 145 148 154 153 153 158 166 164 165 172 183 223 217 147 152 133 142 151 182
250 235 247 263 198 160 163 163 197 233 251 195 199 117 291 196 234 238 219 230 211 186 154 157 146 149 154 159 164 153 163 164 167 177 201 190 195 165 158 149 172 149 167 171
227 247 235 252 267 153 188 194 198 189 211 218 134 96 57 283 268 289 222 235 202 223 172 167 164 153 166 168 167 160 167 171 177 184 211 214 191 134 160 163 168 177 170 171
232 248 255 255 248 187 247 224 210 281 149 207 200 163 178 226 234 222 258 237 230 183 185 166 181 175 179 174 167 168 166 174 185 193 207 201 193 203 170 168 173 175 174 189
251 254 259 282 284 281 266 294 221 245 293 278 202 177 205 238 223 213 214 226 231 202 178 180 193 190 135 147 157 171 171 177 194 207 213 212 201 208 180 182 175 184 180 188
253 274 276 235 263 241 268 285 284 212 243 257 286 184 207 202 223 203 192 206 232 187 188 186 194 173 154 127 190 240 220 188 201 208 225 222 212 211 221 184 174 180 182 201
268 245 258 221 253 258 217 265 281 279 259 267 10 27 285 215 212 182 205 214 230 229 190 189 198 193 166 164 188 220 213 214 203 204 218 218 218 216 213 187 175 175 182 199
273 257 225 222 217 220 220 220 235 248 189 163 352 10 303 228 188 191 225 209 213 155 172 204 220 191 171 171 191 201 198 205 197 206 209 214 223 220 217 207 199 186 196 199
269 283 281 198 196 218 256 220 228 257 93 142 267 258 58 148 181 184 204 221 240 205 205 210 198 192 187 186 197 178 177 210 202 204 203 207 216 218 216 224 211 214 193 220
240 269 176 189 194 216 237 249 236 238 251 214 212 274 256 185 187 193 205 207 229 208 214 204 199 183 183 184 187 176 184 200 217 201 199 204 207 210 208 216 217 213 188 149
225 232 284 300 199 202 242 256 268 265 228 148 180 234 216 140 254 199 199 176 139 137 141 144 213 212 179 176 180 182 192 197 203 199 203 197 200 205 212 221 225 208 166 167
195 193 257 245 255 205 224 252 234 247 281 261 186 252 193 176 213 169 158 148 152 148 139 111 92 69 160 170 170 179 187 191 192 190 203 198 196 200 209 219 224 228 176 170
193 203 245 279 252 267 225 239 262 247 260 258 77 92 199 179 117 115 119 113 110 112 114 83 73 64 61 56 86 180 185 191 195 191 196 194 197 200 206 211 214 220 208 185
92 242 224 234 240 177 273 328 323 355 308 200 121 139 90 112 114 115 120 122 126 125 112 97 78 50 24 15 1 313 250 209 186 198 197 200 191 196 204 206 211 210 212 206
163 263 285 289 152 177 232 274 276 326 306 298 185 166 167 158 147 144 141 146 143 140 125 112 102 81 20 341 340 317 300 6 205 212 196 189 262 268 210 212 211 208 203 210
265 253 264 271 281 214 214 247 297 302 307 344 199 197 183 179 146 146 154 150 155 148 140 131 112 91 63 355 345 344 334 31 124 149 185 205 230 207 211 294 313 306 259 218
317 310 252 249 265 273 196 194 209 235 296 303 293 177 156 161 158 160 157 158 160 150 146 129 121 112 97 44 26 31 24 37 13 68 109 165 174 154 191 239 291 291 291 247
307 324 192 241 289 268 250 192 177 215 280 319 298 180 161 168 166 156 157 159 160 146 140 134 130 120 112 91 66 62 61 67 74 71 92 125 138 153 186 236 287 298 286 250
299 306 306 258 250 277 300 191 164 154 253 270 188 168 152 147 128 156 157 155 153 153 148 145 145 136 127 115 103 84 77 74 67 74 102 123 133 135 148 126 346 296 282 246
272 267 265 262 221 251 200 144 144 138 202 287 333 171 153 139 147 166 158 155 141 140 141 139 137 128 122 124 122 105 97 93 87 89 90 89 154 175 178 153 180 251 255 144
276 262 246 259 249 244 221 149 155 185 219 342 322 159 146 138 164 145 115 119 123 129 132 138 148 156 156 162 157 156 167 160 139 113 103 82 79 90 144 191 183 208 94 73
264 271 250 234 249 256 175 159 181 168 134 74 4 102 114 116 104 114 119 120 122 131 136 131 131 119 122 124 138 159 134 97 85 84 73 69 72 59 71 119 96 86 111 114
323 19 287 9 329 337 333 220 163 154 154 136 133 157 124 124 123 121 125 128 131 139 136 140 140 136 126 100 69 111 92 95 99 90 70 69 78 75 68 75 85 85 95 93
101 19 36 342 267 328 339 7 22 24 145 126 147 143 140 133 135 132 135 138 140 151 152 151 148 137 124 105 80 106 104 89 89 98 101 93 91 78 74 79 88 94 87 113
287 61 270 265 278 324 275 348 346 337 330 127 3 149 144 140 133 136 135 136 132 125 133 138 139 128 126 114 97 93 100 117 115 131 133 128 117 100 88 67 57 77 71 71
186 189 219 261 237 238 281 314 322 331 326 311 228 154 145 138 139 136 136 136 131 124 114 115 116 129 128 129 133 109 121 121 146 153 147 155 131 116 112 108 84 57 64 49